Flag for Canada Past Weather in Happy Valley-Goose Bay, Newfoundland and Labrador, Canada — Yesterday and Last 2 Weeks

Now
30 °F

Passing clouds.


Feels Like: 27 °F
Forecast: 29 / 58 °F
Wind: 3 mph from West

Location: Goose

Current Time: May 27, 2016 at 1:53:31 AM

Latest Report: May 27, 2016 at 1:00 AM


Visibility: 15 mi

Pressure: 30.33 "Hg

Humidity: 80%

Dew Point: 25 °F

Location of Happy Valley-Goose BayLocation

Past Weather in Happy Valley-Goose Bay — Graph

°F

Happy Valley-Goose Bay Temperature Yesterday

Maximum temperature yesterday: 43 °F (at 3:00 PM)
Minimum temperature yesterday: 32 °F (at 3:00 AM)
Average temperature yesterday: 37 °F

High & Low Weather Summary for the Past Weeks

 TemperatureHumidityPressure
High88 °F (May 24, 5:00 PM)93% (May 12, 2:00 AM)30.33 "Hg (May 12, 2:00 AM)
Low32 °F (May 12, 2:00 AM)17% (May 23, 2:00 PM)29.65 "Hg (May 17, 3:00 AM)
Average46 °F65%29.90 "Hg
* Reported May 12 12:00 AM — May 27 12:00 AM, Happy Valley-Goose Bay, Weather by CustomWeather, © 2016

Note: Actual official high and low records may vary slightly from our data, if they occured in-between our weather recording intervals... More about our weather records

Advertising

Happy Valley-Goose Bay Weather History for the Previous 24 Hours

Scroll right to see more
 ConditionsComfort  
Time TempWeatherWind HumidityBarometerVisibility
12:00 AM
Fri, May 27
32 °FPassing clouds.5 mph75%30.33 "Hg15 mi
11:00 PM
Thu, May 26
34 °FPassing clouds.3 mph70%30.32 "Hg15 mi
10:00 PM36 °FPassing clouds.6 mph65%30.33 "Hg15 mi
9:00 PM39 °FScattered clouds.5 mph61%30.33 "Hg15 mi
8:00 PM41 °FPartly sunny.5 mph53%30.33 "Hg15 mi
7:00 PM41 °FPartly sunny.6 mph53%30.32 "Hg15 mi
6:00 PM41 °FPartly sunny.8 mph53%30.31 "Hg15 mi
5:00 PM43 °FPartly sunny.9 mph49%30.29 "Hg15 mi
4:00 PM43 °FPartly sunny.5 mph49%30.29 "Hg15 mi
3:00 PM43 °FPartly sunny.3 mph49%30.28 "Hg15 mi
2:00 PM41 °FPartly sunny.8 mph57%30.28 "Hg15 mi
1:00 PM41 °FPartly sunny.10 mph57%30.28 "Hg15 mi
12:00 PM41 °FPartly sunny.13 mph57%30.29 "Hg15 mi
11:00 AM39 °FBroken clouds.12 mph65%30.29 "Hg15 mi
10:00 AM36 °FPartly sunny.9 mph75%30.28 "Hg15 mi
9:00 AM36 °FBroken clouds.9 mph75%30.27 "Hg15 mi
8:00 AM34 °FSnow flurries. More clouds than sun.12 mph81%30.27 "Hg8 mi
7:53 AM34 °FSnow flurries. Mostly cloudy.12 mph81%30.27 "Hg3 mi
7:00 AM34 °FScattered showers. More clouds than sun.5 mph81%30.25 "Hg15 mi
6:00 AM34 °FLight snow. Mostly cloudy.7 mph81%30.24 "Hg15 mi
5:00 AM32 °FLight snow. Mostly cloudy.9 mph87%30.22 "Hg4 mi
4:00 AM32 °FLight snow. Mostly cloudy.9 mph87%30.21 "Hg3 mi
3:00 AM32 °FLight snow. Mostly cloudy.10 mph87%30.20 "Hg2 mi
2:00 AM34 °FLight snow. Mostly cloudy.13 mph81%30.19 "Hg4 mi
1:00 AM34 °FLight snow. Mostly cloudy.8 mph81%30.21 "Hg4 mi
Weather by CustomWeather, © 2016

See weather overviewHow to use our weather pages